Location: Bratislava
(48.1500°N, 17.1170°E)
Time: 07:04:11
(UTC+02:00)

Vanguard 3 - All Passes

Search period start: 08 June 2026 00:00
Search period end: 18 June 2026 00:00
Orbit: 507 x 3204 km, 33.3° (Epoch: 6 June)

Date Brightness Start Highest point End Pass type
(mag) Time Alt. Az. Time Alt. Az. Time Alt. Az.
8 Jun - 07:58:09 10° SSW 08:02:57 22° SSE 08:09:51 10° ESE daylight
8 Jun - 10:06:23 10° WSW 10:13:29 34° S 10:24:48 10° ESE daylight
8 Jun - 12:16:38 10° WSW 12:25:22 29° SSW 12:38:06 10° SE daylight
8 Jun - 14:30:42 10° WSW 14:37:45 15° SSW 14:46:06 10° S daylight
9 Jun - 06:40:22 10° SSE 06:42:03 11° SE 06:43:56 10° SE daylight
9 Jun - 08:46:04 10° SW 08:51:39 28° SSE 09:00:17 10° ESE daylight
9 Jun - 10:55:16 10° WSW 11:02:45 32° S 11:14:24 10° SE daylight
9 Jun - 13:06:44 10° WSW 13:14:52 21° SSW 13:25:42 10° SSE daylight
10 Jun - 07:26:30 10° SSW 07:30:24 19° SSE 07:35:44 10° ESE daylight
10 Jun - 09:34:31 10° SW 09:40:38 30° S 09:50:15 10° ESE daylight
10 Jun - 11:44:36 10° WSW 11:52:09 26° SSW 12:03:11 10° SSE daylight
10 Jun - 13:58:59 10° SW 14:04:18 13° SSW 14:10:29 10° S daylight
11 Jun - 08:14:19 10° SW 08:19:03 24° SSE 08:26:03 10° ESE daylight
11 Jun - 10:23:22 10° WSW 10:29:49 28° S 10:39:42 10° SE daylight
11 Jun - 12:34:49 10° WSW 12:41:36 19° SSW 12:50:33 10° SSE daylight
12 Jun - 06:54:56 10° SSW 06:57:57 16° SSE 07:01:47 10° ESE daylight
12 Jun - 09:02:44 10° SW 09:07:58 26° S 09:15:52 10° SE daylight
12 Jun - 11:12:44 10° WSW 11:19:08 23° SSW 11:28:18 10° SSE daylight
12 Jun - 13:28:19 10° SW 13:31:01 11° SSW 13:33:57 10° SSW daylight
13 Jun - 07:42:38 10° SSW 07:46:34 21° SSE 07:52:03 10° ESE daylight
13 Jun - 09:51:36 10° WSW 09:57:03 24° S 10:05:08 10° SE daylight
13 Jun - 12:03:11 10° SW 12:08:31 16° SSW 12:15:17 10° S daylight
14 Jun - 06:23:29 10° S 06:25:34 13° SSE 06:27:59 10° SE daylight
14 Jun - 08:31:02 10° SW 08:35:25 22° S 08:41:42 10° SE daylight
14 Jun - 10:41:04 10° SW 10:46:17 19° SSW 10:53:29 10° SSE daylight
15 Jun - 07:11:00 10° SSW 07:14:10 17° SSE 07:18:15 10° SE daylight
15 Jun - 09:19:57 10° SW 09:24:26 20° S 09:30:44 10° SE daylight
15 Jun - 11:32:04 10° SW 11:35:35 13° SSW 11:39:46 10° S daylight
16 Jun - 05:52:25 10° S 05:53:12 10° SSE 05:54:01 10° SSE daylight
16 Jun - 07:59:26 10° SW 08:02:58 19° S 08:07:43 10° SE daylight
16 Jun - 10:09:38 10° SW 10:13:36 15° SSW 10:18:41 10° SSE daylight
17 Jun - 06:39:26 10° SSW 06:41:49 14° SSE 06:44:40 10° SE daylight
17 Jun - 08:48:27 10° SW 08:51:56 16° S 08:56:29 10° SSE daylight
